Weather observations for the past three days for
New York, Kennedy International Airport
Imperial (Metric)
Date Time (edt) Wind (mph) Vis. (mi.) Weather Sky Cond. Temperature (ºF) Relative Humidity Wind Chill (°F) Heat Index (°F) Pressure Precipitation (in)
Air Dwpt 6 hour altimeter (in) sea level (mb) 1 hr 3 hr 6 hr
Max. Min.
25 14:51 W 22 10.00 Mostly Cloudy and Breezy FEW075 BKN250 90 51.1 26% 87 29.88 1011.9
25 13:51 SW 16 10.00 Mostly Cloudy FEW075 BKN250 88 54 31% 86 29.89 1012.0
25 12:51 W 17 G 21 10.00 Mostly Cloudy FEW075 BKN250 90 51.1 26% 87 29.89 1012.2
25 11:51 NW 10 10.00 Partly Cloudy FEW070 SCT250 91 54 28% 89 29.91 1012.7
25 10:51 NW 13 G 21 10.00 A Few Clouds FEW250 89.1 55 31% 87 29.91 1012.9
25 09:51 NW 15 G 24 10.00 A Few Clouds FEW250 86 55 35% 84 29.92 1013.1
25 08:51 NW 13 10.00 Fair CLR 81 55 41% 81 29.9 1012.5
25 07:51 NW 14 10.00 Fair CLR 78.1 54 78.1 72 43% 79 29.88 1011.9
25 06:51 NW 9 10.00 Fair CLR 75 53.1 46% 78 29.89 1012.3
25 05:51 NW 13 10.00 Fair CLR 73 52 48% 29.89 1012.1
25 04:51 NW 14 10.00 Fair CLR 73 52 48% 29.88 1011.6
25 03:51 NW 9 10.00 Fair CLR 72 54 53% 29.85 1010.8
25 02:51 NW 10 G 21 10.00 A Few Clouds FEW250 73 54 51% 29.83 1010.1
25 01:51 NW 15 10.00 A Few Clouds FEW250 73 55 75.9 73 53% 29.82 1009.6
25 00:51 NW 18 G 28 10.00 A Few Clouds FEW250 73.9 55.9 54% 29.8 1009.1
24 23:51 NW 14 10.00 A Few Clouds FEW085 73.9 55.9 54% 29.79 1008.7
24 22:51 NW 20 G 26 10.00 Mostly Cloudy FEW065 BKN085 73.9 55 52% 29.77 1008.0
24 21:51 NW 18 G 25 10.00 Mostly Cloudy BKN065 75 55 50% 78 29.77 1008.0
24 20:51 N 17 10.00 Mostly Cloudy BKN065 73.9 52 46% 29.75 1007.3
24 19:51 NW 25 G 44 10.00 Mostly Cloudy and Breezy BKN050 73.9 53.1 82 73.9 48% 29.72 1006.4
24 18:51 NW 30 G 44 10.00 Mostly Cloudy and Windy BKN055 BKN250 75 54 48% 78 29.7 1005.9
24 17:51 NW 31 G 41 10.00 Mostly Cloudy and Windy BKN055 BKN250 77 55 47% 78 29.66 1004.4
24 16:51 NW 29 G 43 10.00 Mostly Cloudy and Windy BKN055 BKN075 BKN250 78.1 54 43% 79 29.64 1003.6
24 15:51 W 31 G 37 10.00 Mostly Cloudy and Windy BKN060 BKN075 BKN250 81 54 39% 81 29.64 1003.7
24 14:51 NW 21 G 35 0.00 Mostly Cloudy and Breezy BKN060 BKN075 BKN250 80.1 54 41% 80 29.64 1003.7
24 13:51 W 24 G 40 10.00 Mostly Cloudy and Breezy BKN060 BKN250 81 54 84.9 80.1 39% 81 29.63 1003.4
24 12:51 W 24 G 33 10.00 Mostly Cloudy and Breezy BKN060 BKN250 82 55.9 41% 82 29.64 1003.5
24 11:51 W 20 G 29 10.00 Mostly Cloudy BKN055 BKN250 82.9 55.9 40% 82 29.63 1003.5
24 10:51 W 16 G 30 10.00 Mostly Cloudy SCT050 SCT120 BKN250 82.9 57.9 43% 83 29.62 1003.0
24 09:51 NW 18 G 26 10.00 Mostly Cloudy SCT040 SCT120 BKN250 84 61 46% 84 29.61 1002.8
24 08:51 W 17 G 28 10.00 Mostly Cloudy SCT040 BKN120 BKN250 82 62.1 51% 83 29.6 1002.3
24 07:51 W 16 G 31 10.00 Mostly Cloudy FEW040 BKN110 BKN250 81 64 82 69.1 57% 83 29.6 1002.3
24 06:51 W 15 10.00 Mostly Cloudy SCT090 BKN120 BKN250 80.1 66 62% 82 29.59 1002.0
24 05:51 W 15 10.00 Mostly Cloudy FEW040 SCT070 SCT095 BKN250 79 68 69% 81 29.58 1001.5
24 04:51 SW 8 10.00 Mostly Cloudy BKN140 BKN250 75 72 90% 74 29.57 1001.1
24 03:51 SW 6 10.00 Mostly Cloudy SCT085 BKN140 BKN250 71.1 68 90% 29.57 1001.2
24 02:51 SW 5 10.00 Mostly Cloudy FEW060 BKN100 BKN140 BKN250 69.1 66.9 93% 29.58 1001.6
24 01:51 S 21 G 29 10.00 Mostly Cloudy and Breezy SCT065 BKN080 BKN250 71.1 68 81 71.1 90% 29.6 1002.2
24 00:51 S 13 10.00 Mostly Cloudy SCT075 BKN120 BKN250 71.1 69.1 94% 29.6 1002.3
23 23:51 SW 15 G 26 10.00 Light Rain FEW045 BKN075 BKN160 73 70 90% 29.62 1002.9
23 22:51 S 22 G 33 10.00 Mostly Cloudy and Breezy FEW011 FEW048 SCT085 BKN160 73 70 90% 29.61 1002.7
23 21:51 S 21 G 31 10.00 Mostly Cloudy and Breezy SCT095 BKN160 73 68 84% 29.61 1002.6
23 20:51 S 21 G 31 10.00 Mostly Cloudy and Breezy SCT090 BKN110 BKN250 77 68 74% 79 29.61 1002.8
23 19:51 SW 20 G 31 10.00 Overcast FEW040 SCT150 BKN210 OVC250 75.9 68 77% 77 29.6 1002.2
23 18:51 S 16 10.00 Mostly Cloudy FEW040 SCT100 BKN210 BKN250 75.9 68 77% 77 29.6 1002.4
23 17:51 S 20 G 25 10.00 Overcast FEW040 SCT100 BKN190 OVC250 77 68 74% 79 29.6 1002.4
23 16:51 S 18 G 29 10.00 Mostly Cloudy FEW040 SCT100 BKN180 BKN250 79 68 69% 81 29.61 1002.7
23 15:51 S 23 G 32 10.00 Mostly Cloudy and Breezy FEW030 SCT090 BKN180 BKN250 78.1 68 71% 80 29.64 1003.7
23 14:51 S 20 10.00 Mostly Cloudy FEW030 SCT090 BKN250 80.1 70 71% 83 29.66 1004.5
23 13:51 S 13 10.00 Mostly Cloudy FEW050 FEW090 BKN150 BKN250 81 70 84.9 71.1 69% 84 29.69 1005.5
23 12:51 S 14 10.00 Mostly Cloudy FEW050 FEW080 SCT095 BKN150 BKN250 84 71.1 65% 89 29.73 1006.6
23 11:51 S 9 10.00 Mostly Cloudy FEW050 FEW095 BKN150 BKN250 80.1 70 71% 83 29.75 1007.2
23 10:51 S 9 10.00 Mostly Cloudy FEW050 SCT090 BKN130 BKN240 80.1 71.1 74% 84 29.76 1007.8
23 09:51 S 7 10.00 Mostly Cloudy FEW030 FEW070 SCT130 BKN240 78.1 71.1 79% 80 29.78 1008.5
23 08:51 S 7 10.00 Mostly Cloudy FEW010 SCT130 BKN240 73.9 70 88% 29.81 1009.2
23 07:51 S 7 10.00 Mostly Cloudy FEW010 FEW070 SCT130 BKN230 71.1 69.1 72 70 94% 29.82 1009.7
23 06:51 S 6 10.00 Mostly Cloudy FEW010 FEW040 FEW070 SCT130 BKN220 71.1 69.1 94% 29.83 1010.1
23 05:51 SE 5 10.00 Mostly Cloudy BKN060 BKN110 BKN200 70 68 93% 29.83 1010.2
23 04:51 SE 7 10.00 Mostly Cloudy BKN065 BKN090 BKN120 BKN200 70 68 93% 29.85 1010.6
23 03:51 SE 3 10.00 Mostly Cloudy BKN060 BKN120 BKN250 71.1 68 90% 29.87 1011.4
23 02:51 SE 3 10.00 Mostly Cloudy BKN075 BKN090 BKN120 BKN250 71.1 68 90% 29.89 1012.1
23 01:51 S 5 10.00 Mostly Cloudy BKN090 BKN120 BKN180 70 68 79 70 93% 29.91 1012.7 0.04
23 00:51 S 6 10.00 Overcast BKN090 OVC170 73 70 90% 29.92 1013.0
22 23:51 SE 5 10.00 Overcast BKN060 BKN085 OVC120 73.9 70 88% 29.93 1013.6
22 22:51 SE 8 10.00 Mostly Cloudy BKN085 BKN110 BKN150 73.9 71.1 91% 29.93 1013.4 0.04
22 21:51 SE 9 10.00 Light Rain FEW025 SCT055 BKN080 OVC150 75 71.1 88% 75 29.94 1013.8 0.04
22 20:51 SE 6 10.00 Thunderstorm FEW040 SCT055CB BKN080 OVC250 78.1 68 71% 80 29.98 1015.0
22 19:51 Vrbl 3 10.00 Mostly Cloudy FEW045 SCT060 BKN110 BKN250 78.1 68 84.9 75 71% 80 29.94 1013.7
22 18:51 SE 8 10.00 Mostly Cloudy FEW045 BKN060 BKN100 BKN230 82.9 69.1 63% 87 29.95 1014.0
22 17:51 SE 5 10.00 Mostly Cloudy SCT055 BKN180 BKN250 82.9 66 57% 85 29.92 1013.0
22 16:51 S 14 G 18 9.00 Thunderstorm Light Rain SCT025 BKN055CB BKN100 BKN250 77 71.1 82% 79 29.93 1013.6
22 15:51 S 9 10.00 Mostly Cloudy FEW030 SCT055 BKN150 BKN250 82.9 71.1 67% 88 29.95 1014.2
Date Time (edt) Wind (mph) Vis. (mi.) Weather Sky Cond. Air Dwpt Max. Min. Relative Humidity Wind Chill (°F) Heat Index (°F) altimeter (in) sea level (mb) 1 hr 3 hr 6 hr
6 hour
Temperature (ºF) Pressure Precipitation (in)